星链-32114 (STARLINK-32114)

导读

STARLINK-32114是美国太空探索技术公司星链星座的成员,于2024年7月28日发射入轨。星链计划旨在构建全球卫星互联网星座,为全球多地提供高速低延迟互联网服务。该卫星延续了星链卫星的技术设计,加入低轨星座运行网络,服务全球宽带互联网覆盖,进一步扩充星链星座的规模与服务能力。

Basic Information
目录编号:
60287
目录名称:
STARLINK-32114
国际标识:
2024-132K
轨道中心:
EARTH
卫星名称:
星链-32114 (STARLINK-32114)
卫星全名:
星链-32114 (STARLINK-32114)
卫星状态:
在轨 (已飞行776 天)
发射日期:
2024-07-28 UTC
国别 :
美国 (US)
星等 :
--
This satellite is enrolled in the Space Conjunction Data Service (SCDS) and the current flight risk assessment level is: No High Risk
Orbit Information
数据来源 国际轨道数据 AOE轨道数据
星历时间 2026-09-11T15:34:57+0800
20小时前
查看轨道信息
2026-09-10T14:00:00+0800
1天前
查看轨道信息
半长轴 6848.871km 6848.909km
偏心率 0.0001204 0.0000997
轨道倾角 53.160° 53.159°
近地点辐角 85.406° 73.341°
升交点赤经 269.292° 274.258°
平近点角 274.708° 165.735°
近地点 469.909km 470.089km
远地点 471.559km 471.455km
周期 94.013分钟 94.014分钟
每日圈数 15.317023 15.316894
Detailed Information
卫星平台:
Starlink v2.0 mini
运营商:
太空探索技术公司
运营商所在国:
美国
制造商(研发单位):
太空探索技术公司
制造商所在国:
美国
使用方式:
暂无
Satellite Introduction
星链(Starlink)计划是由太空探索技术公司(SpaceX)提出的一个巨型低轨卫星互联网星座项目,计划在2019年至2024年间在太空搭建由约1.2万颗卫星组成的“星链”网络,其中1584颗将部署在地球上空550千米处的近地轨道,并从2020年开始工作。该卫星仍在工作。
2D Orbit Map
3D Orbit Map
Orbit Altitude Analysis Chart
Orbit Inclination Analysis Chart
Orbit Comprehensive Analysis Chart
View Comprehensive Chart
Miss Distance Evolution Trend with All Objects
Collision Probability Evolution Trend with All Objects